Bibliothèque

Musique » Lana Del Rey »

Diet Mountain Dew

26 écoutes | Se rendre sur la page du titre

Du Mardi 8 novembre 2011 au Mardi 8 mai 2012 Tout le temps

Titres (26)
Titre Album Durée Date
Diet Mountain Dew 3:43 29 avr. 2012, 18h27m
Diet Mountain Dew 3:43 16 avr. 2012, 17h54m
Diet Mountain Dew 3:43 5 avr. 2012, 19h33m
Diet Mountain Dew 3:43 9 mars 2012, 18h05m
Diet Mountain Dew 3:43 17 fév. 2012, 13h01m
Diet Mountain Dew 3:43 9 fév. 2012, 19h14m
Diet Mountain Dew 3:43 4 fév. 2012, 10h47m
Diet Mountain Dew 3:43 4 fév. 2012, 0h10m
Diet Mountain Dew 3:43 4 fév. 2012, 0h06m
Diet Mountain Dew 3:43 4 fév. 2012, 0h01m
Diet Mountain Dew 3:43 3 fév. 2012, 23h56m
Diet Mountain Dew 3:43 3 fév. 2012, 23h52m
Diet Mountain Dew 3:43 3 fév. 2012, 23h47m
Diet Mountain Dew 3:43 3 fév. 2012, 23h42m
Diet Mountain Dew 3:43 3 fév. 2012, 23h38m
Diet Mountain Dew 3:43 3 fév. 2012, 23h17m
Diet Mountain Dew 3:43 3 fév. 2012, 23h13m
Diet Mountain Dew 3:43 3 fév. 2012, 16h37m
Diet Mountain Dew 3:43 3 fév. 2012, 16h32m
Diet Mountain Dew 3:43 3 fév. 2012, 16h27m
Diet Mountain Dew 3:43 3 fév. 2012, 16h23m
Diet Mountain Dew 3:43 3 fév. 2012, 16h18m
Diet Mountain Dew 3:43 3 fév. 2012, 15h31m
Diet Mountain Dew 3:43 3 fév. 2012, 15h27m
Diet Mountain Dew 3:43 3 fév. 2012, 15h19m
Diet Mountain Dew 3:43 21 jan. 2012, 17h36m